Time,TemperatureF,DewpointF,PressureIn,WindDirection,WindDirectionDegrees,WindSpeedMPH,WindSpeedGustMPH,Humidity,HourlyPrecipIn,Conditions,Clouds,dailyrainin,SolarRadiationWatts/m^2,SoftwareType,DateUTC
2013-03-24 00:01:00,28.0,17.0,-100.00,NNE,26,3.0,6.0,64,0.00,,,0.00,0.000000,,2013-03-24 05:01:00,
2013-03-24 00:32:00,28.0,17.0,-100.00,NNE,26,3.0,6.0,64,0.00,,,0.00,0.000000,,2013-03-24 05:32:00,
2013-03-24 00:43:00,28.0,17.0,-100.00,NNE,26,3.0,6.0,64,0.00,,,0.00,0.000000,,2013-03-24 05:43:00,
2013-03-24 00:52:00,28.0,17.0,-100.00,NNE,26,3.0,6.0,64,0.00,,,0.00,0.000000,,2013-03-24 05:52:00,
2013-03-24 01:01:00,27.0,17.0,-100.00,NE,38,4.0,6.0,65,0.00,,,0.00,0.000000,,2013-03-24 06:01:00,
2013-03-24 01:32:00,27.0,17.0,-100.00,NE,38,4.0,6.0,65,0.00,,,0.00,0.000000,,2013-03-24 06:32:00,
2013-03-24 01:42:00,27.0,17.0,-100.00,NE,38,4.0,6.0,65,0.00,,,0.00,0.000000,,2013-03-24 06:42:00,
2013-03-24 01:52:00,27.0,17.0,-100.00,NE,38,4.0,6.0,65,0.00,,,0.00,0.000000,,2013-03-24 06:52:00,
2013-03-24 02:01:00,27.0,17.0,-100.00,NNE,31,4.0,8.0,66,0.00,,,0.00,0.000000,,2013-03-24 07:01:00,
2013-03-24 02:32:00,27.0,17.0,-100.00,NNE,31,4.0,8.0,66,0.00,,,0.00,0.000000,,2013-03-24 07:32:00,
2013-03-24 02:42:00,27.0,17.0,-100.00,NNE,31,4.0,8.0,66,0.00,,,0.00,0.000000,,2013-03-24 07:42:00,
2013-03-24 02:52:00,27.0,17.0,-100.00,NNE,31,4.0,8.0,66,0.00,,,0.00,0.000000,,2013-03-24 07:52:00,
2013-03-24 03:01:00,26.0,16.0,-100.00,NNE,15,2.0,6.0,65,0.00,,,0.00,0.000000,,2013-03-24 08:01:00,
2013-03-24 03:22:00,26.0,16.0,-100.00,NNE,15,2.0,6.0,65,0.00,,,0.00,0.000000,,2013-03-24 08:22:00,
2013-03-24 03:32:00,26.0,16.0,-100.00,NNE,15,2.0,6.0,65,0.00,,,0.00,0.000000,,2013-03-24 08:32:00,
2013-03-24 03:42:00,26.0,16.0,-100.00,NNE,15,2.0,6.0,65,0.00,,,0.00,0.000000,,2013-03-24 08:42:00,
2013-03-24 03:52:00,26.0,16.0,-100.00,NNE,15,2.0,6.0,65,0.00,,,0.00,0.000000,,2013-03-24 08:52:00,
2013-03-24 04:01:00,26.0,16.0,-100.00,North,359,3.0,6.0,66,0.00,,,0.00,0.000000,,2013-03-24 09:01:00,
2013-03-24 04:22:00,26.0,16.0,-100.00,North,359,3.0,6.0,66,0.00,,,0.00,0.000000,,2013-03-24 09:22:00,
2013-03-24 04:33:00,26.0,16.0,-100.00,North,359,3.0,6.0,66,0.00,,,0.00,0.000000,,2013-03-24 09:33:00,
2013-03-24 04:43:00,26.0,16.0,-100.00,North,359,3.0,6.0,66,0.00,,,0.00,0.000000,,2013-03-24 09:43:00,
2013-03-24 04:52:00,26.0,16.0,-100.00,North,359,3.0,6.0,66,0.00,,,0.00,0.000000,,2013-03-24 09:52:00,
2013-03-24 05:01:00,25.0,16.0,-100.00,North,1,3.0,6.0,67,0.00,,,0.00,0.000000,,2013-03-24 10:01:00,
2013-03-24 05:33:00,25.0,16.0,-100.00,North,1,3.0,6.0,67,0.00,,,0.00,0.000000,,2013-03-24 10:33:00,
2013-03-24 05:42:00,25.0,16.0,-100.00,North,1,3.0,6.0,67,0.00,,,0.00,0.000000,,2013-03-24 10:42:00,
2013-03-24 05:52:00,25.0,16.0,-100.00,North,1,3.0,6.0,67,0.00,,,0.00,0.000000,,2013-03-24 10:52:00,
2013-03-24 06:01:00,25.0,15.0,-100.00,NNE,23,4.0,7.0,66,0.00,,,0.00,0.000000,,2013-03-24 11:01:00,
2013-03-24 06:22:00,25.0,15.0,-100.00,NNE,23,4.0,7.0,66,0.00,,,0.00,0.000000,,2013-03-24 11:22:00,
2013-03-24 06:33:00,25.0,15.0,-100.00,NNE,23,4.0,7.0,66,0.00,,,0.00,0.000000,,2013-03-24 11:33:00,
2013-03-24 06:42:00,25.0,15.0,-100.00,NNE,23,4.0,7.0,66,0.00,,,0.00,0.000000,,2013-03-24 11:42:00,
2013-03-24 06:52:00,25.0,15.0,-100.00,NNE,23,4.0,7.0,66,0.00,,,0.00,0.000000,,2013-03-24 11:52:00,
2013-03-24 07:01:00,24.0,15.0,-100.00,North,6,3.0,7.0,67,0.00,,,0.00,0.000000,,2013-03-24 12:01:00,
2013-03-24 07:23:00,24.0,15.0,-100.00,North,6,3.0,7.0,67,0.00,,,0.00,0.000000,,2013-03-24 12:23:00,
2013-03-24 07:32:00,24.0,15.0,-100.00,North,6,3.0,7.0,67,0.00,,,0.00,0.000000,,2013-03-24 12:32:00,
2013-03-24 07:42:00,24.0,15.0,-100.00,North,6,3.0,7.0,67,0.00,,,0.00,0.000000,,2013-03-24 12:42:00,
2013-03-24 07:52:00,24.0,15.0,-100.00,North,6,3.0,7.0,67,0.00,,,0.00,0.000000,,2013-03-24 12:52:00,
2013-03-24 08:01:00,24.0,15.0,-100.00,NNW,346,3.0,6.0,69,0.00,,,0.00,16.000000,,2013-03-24 13:01:00,
2013-03-24 08:23:00,24.0,15.0,-100.00,NNW,346,3.0,6.0,69,0.00,,,0.00,16.000000,,2013-03-24 13:23:00,
2013-03-24 08:32:00,24.0,15.0,-100.00,NNW,346,3.0,6.0,69,0.00,,,0.00,16.000000,,2013-03-24 13:32:00,
2013-03-24 08:43:00,24.0,15.0,-100.00,NNW,346,3.0,6.0,69,0.00,,,0.00,16.000000,,2013-03-24 13:43:00,
2013-03-24 08:52:00,24.0,15.0,-100.00,NNW,346,3.0,6.0,69,0.00,,,0.00,16.000000,,2013-03-24 13:52:00,
2013-03-24 09:01:00,25.0,15.0,-100.00,North,358,5.0,9.0,66,0.00,,,0.00,95.000000,,2013-03-24 14:01:00,
2013-03-24 09:33:00,25.0,15.0,-100.00,North,358,5.0,9.0,66,0.00,,,0.00,95.000000,,2013-03-24 14:33:00,
2013-03-24 09:42:00,25.0,15.0,-100.00,North,358,5.0,9.0,66,0.00,,,0.00,95.000000,,2013-03-24 14:42:00,
2013-03-24 09:52:00,25.0,15.0,-100.00,North,358,5.0,9.0,66,0.00,,,0.00,95.000000,,2013-03-24 14:52:00,
2013-03-24 10:01:00,27.0,15.0,-100.00,North,355,5.0,10.0,60,0.00,,,0.00,191.000000,,2013-03-24 15:01:00,
2013-03-24 10:22:00,27.0,15.0,-100.00,North,355,5.0,10.0,60,0.00,,,0.00,191.000000,,2013-03-24 15:22:00,
2013-03-24 10:33:00,27.0,15.0,-100.00,North,355,5.0,10.0,60,0.00,,,0.00,191.000000,,2013-03-24 15:33:00,
2013-03-24 10:43:00,27.0,15.0,-100.00,North,355,5.0,10.0,60,0.00,,,0.00,191.000000,,2013-03-24 15:43:00,
2013-03-24 10:53:00,27.0,15.0,-100.00,North,355,5.0,10.0,60,0.00,,,0.00,191.000000,,2013-03-24 15:53:00,
2013-03-24 11:01:00,32.0,17.0,-100.00,North,351,6.0,11.0,53,0.00,,,0.00,380.000000,,2013-03-24 16:01:00,
2013-03-24 11:23:00,32.0,17.0,-100.00,North,351,6.0,11.0,53,0.00,,,0.00,380.000000,,2013-03-24 16:23:00,
2013-03-24 11:33:00,32.0,17.0,-100.00,North,351,6.0,11.0,53,0.00,,,0.00,380.000000,,2013-03-24 16:33:00,
2013-03-24 11:43:00,32.0,17.0,-100.00,North,351,6.0,11.0,53,0.00,,,0.00,380.000000,,2013-03-24 16:43:00,
2013-03-24 11:52:00,32.0,17.0,-100.00,North,351,6.0,11.0,53,0.00,,,0.00,380.000000,,2013-03-24 16:52:00,
2013-03-24 12:01:00,35.0,17.0,-100.00,NNE,19,5.0,11.0,48,0.00,,,0.00,631.000000,,2013-03-24 17:01:00,
2013-03-24 12:23:00,35.0,17.0,-100.00,NNE,19,5.0,11.0,48,0.00,,,0.00,631.000000,,2013-03-24 17:23:00,
2013-03-24 12:33:00,35.0,17.0,-100.00,NNE,19,5.0,11.0,48,0.00,,,0.00,631.000000,,2013-03-24 17:33:00,
2013-03-24 12:43:00,35.0,17.0,-100.00,NNE,19,5.0,11.0,48,0.00,,,0.00,631.000000,,2013-03-24 17:43:00,
2013-03-24 12:53:00,35.0,17.0,-100.00,NNE,19,5.0,11.0,48,0.00,,,0.00,631.000000,,2013-03-24 17:53:00,
2013-03-24 13:01:00,35.0,15.0,-100.00,ENE,77,5.0,11.0,43,0.00,,,0.00,665.000000,,2013-03-24 18:01:00,
2013-03-24 13:22:00,35.0,15.0,-100.00,ENE,77,5.0,11.0,43,0.00,,,0.00,665.000000,,2013-03-24 18:22:00,
2013-03-24 13:33:00,35.0,15.0,-100.00,ENE,77,5.0,11.0,43,0.00,,,0.00,665.000000,,2013-03-24 18:33:00,
2013-03-24 13:43:00,35.0,15.0,-100.00,ENE,77,5.0,11.0,43,0.00,,,0.00,665.000000,,2013-03-24 18:43:00,
2013-03-24 13:52:00,35.0,15.0,-100.00,ENE,77,5.0,11.0,43,0.00,,,0.00,665.000000,,2013-03-24 18:52:00,
2013-03-24 14:01:00,38.0,17.0,-100.00,NNE,19,5.0,10.0,42,0.00,,,0.00,798.000000,,2013-03-24 19:01:00,
2013-03-24 14:23:00,38.0,17.0,-100.00,NNE,19,5.0,10.0,42,0.00,,,0.00,798.000000,,2013-03-24 19:23:00,
2013-03-24 14:32:00,38.0,17.0,-100.00,NNE,19,5.0,10.0,42,0.00,,,0.00,798.000000,,2013-03-24 19:32:00,
2013-03-24 14:43:00,38.0,17.0,-100.00,NNE,19,5.0,10.0,42,0.00,,,0.00,798.000000,,2013-03-24 19:43:00,
2013-03-24 14:53:00,38.0,17.0,-100.00,NNE,19,5.0,10.0,42,0.00,,,0.00,798.000000,,2013-03-24 19:53:00,
2013-03-24 15:01:00,39.0,17.0,-100.00,ENE,57,3.0,10.0,40,0.00,,,0.00,727.000000,,2013-03-24 20:01:00,
2013-03-24 15:32:00,39.0,17.0,-100.00,ENE,57,3.0,10.0,40,0.00,,,0.00,727.000000,,2013-03-24 20:32:00,
2013-03-24 15:43:00,39.0,17.0,-100.00,ENE,57,3.0,10.0,40,0.00,,,0.00,727.000000,,2013-03-24 20:43:00,
2013-03-24 15:53:00,39.0,17.0,-100.00,ENE,57,3.0,10.0,40,0.00,,,0.00,727.000000,,2013-03-24 20:53:00,
2013-03-24 16:01:00,34.0,16.0,-100.00,NE,37,5.0,10.0,48,0.00,,,0.00,238.000000,,2013-03-24 21:01:00,
2013-03-24 16:33:00,34.0,16.0,-100.00,NE,37,5.0,10.0,48,0.00,,,0.00,238.000000,,2013-03-24 21:33:00,
2013-03-24 16:43:00,34.0,16.0,-100.00,NE,37,5.0,10.0,48,0.00,,,0.00,238.000000,,2013-03-24 21:43:00,
2013-03-24 16:53:00,34.0,16.0,-100.00,NE,37,5.0,10.0,48,0.00,,,0.00,238.000000,,2013-03-24 21:53:00,
2013-03-24 17:01:00,33.0,19.0,-100.00,NE,39,5.0,10.0,55,0.00,,,0.00,177.000000,,2013-03-24 22:01:00,
2013-03-24 17:23:00,33.0,19.0,-100.00,NE,39,5.0,10.0,55,0.00,,,0.00,177.000000,,2013-03-24 22:23:00,
2013-03-24 17:33:00,33.0,19.0,-100.00,NE,39,5.0,10.0,55,0.00,,,0.00,177.000000,,2013-03-24 22:33:00,
2013-03-24 17:43:00,33.0,19.0,-100.00,NE,39,5.0,10.0,55,0.00,,,0.00,177.000000,,2013-03-24 22:43:00,
2013-03-24 17:52:00,33.0,19.0,-100.00,NE,39,5.0,10.0,55,0.00,,,0.00,177.000000,,2013-03-24 22:52:00,
2013-03-24 18:01:00,32.0,17.0,-100.00,NNE,17,7.0,12.0,53,0.00,,,0.00,138.000000,,2013-03-24 23:01:00,
2013-03-24 18:32:00,32.0,17.0,-100.00,NNE,17,7.0,12.0,53,0.00,,,0.00,138.000000,,2013-03-24 23:32:00,
2013-03-24 18:42:00,32.0,17.0,-100.00,NNE,17,7.0,12.0,53,0.00,,,0.00,138.000000,,2013-03-24 23:42:00,
2013-03-24 18:53:00,32.0,17.0,-100.00,NNE,17,7.0,12.0,53,0.00,,,0.00,138.000000,,2013-03-24 23:53:00,
2013-03-24 19:01:00,30.0,16.0,-100.00,North,9,6.0,13.0,56,0.00,,,0.00,53.000000,,2013-03-25 00:01:00,
2013-03-24 19:23:00,30.0,16.0,-100.00,North,9,6.0,13.0,56,0.00,,,0.00,53.000000,,2013-03-25 00:23:00,
2013-03-24 19:33:00,30.0,16.0,-100.00,North,9,6.0,13.0,56,0.00,,,0.00,53.000000,,2013-03-25 00:33:00,
2013-03-24 19:43:00,30.0,16.0,-100.00,North,9,6.0,13.0,56,0.00,,,0.00,53.000000,,2013-03-25 00:43:00,
2013-03-24 19:53:00,30.0,16.0,-100.00,North,9,6.0,13.0,56,0.00,,,0.00,53.000000,,2013-03-25 00:53:00,
2013-03-24 20:01:00,29.0,16.0,-100.00,North,356,5.0,12.0,59,0.00,,,0.00,7.000000,,2013-03-25 01:01:00,
2013-03-24 20:32:00,29.0,16.0,-100.00,North,356,5.0,12.0,59,0.00,,,0.00,7.000000,,2013-03-25 01:32:00,
2013-03-24 20:42:00,29.0,16.0,-100.00,North,356,5.0,12.0,59,0.00,,,0.00,7.000000,,2013-03-25 01:42:00,
2013-03-24 20:52:00,29.0,16.0,-100.00,North,356,5.0,12.0,59,0.00,,,0.00,7.000000,,2013-03-25 01:52:00,
2013-03-24 21:01:00,28.0,16.0,-100.00,NNE,17,6.0,12.0,61,0.00,,,0.00,0.000000,,2013-03-25 02:01:00,
2013-03-24 21:33:00,28.0,16.0,-100.00,NNE,17,6.0,12.0,61,0.00,,,0.00,0.000000,,2013-03-25 02:33:00,
2013-03-24 21:43:00,28.0,16.0,-100.00,NNE,17,6.0,12.0,61,0.00,,,0.00,0.000000,,2013-03-25 02:43:00,
2013-03-24 21:52:00,28.0,16.0,-100.00,NNE,17,6.0,12.0,61,0.00,,,0.00,0.000000,,2013-03-25 02:52:00,
2013-03-24 22:01:00,27.0,16.0,-100.00,North,4,6.0,12.0,63,0.00,,,0.00,0.000000,,2013-03-25 03:01:00,
2013-03-24 22:34:00,27.0,16.0,-100.00,North,4,6.0,12.0,63,0.00,,,0.00,0.000000,,2013-03-25 03:34:00,
2013-03-24 22:43:00,27.0,16.0,-100.00,North,4,6.0,12.0,63,0.00,,,0.00,0.000000,,2013-03-25 03:43:00,
2013-03-24 22:53:00,27.0,16.0,-100.00,North,4,6.0,12.0,63,0.00,,,0.00,0.000000,,2013-03-25 03:53:00,
2013-03-24 23:01:00,27.0,16.0,-100.00,North,8,5.0,12.0,62,0.00,,,0.00,0.000000,,2013-03-25 04:01:00,
2013-03-24 23:33:00,27.0,16.0,-100.00,North,8,5.0,12.0,62,0.00,,,0.00,0.000000,,2013-03-25 04:33:00,
2013-03-24 23:43:00,27.0,16.0,-100.00,North,8,5.0,12.0,62,0.00,,,0.00,0.000000,,2013-03-25 04:43:00,
2013-03-24 23:52:00,27.0,16.0,-100.00,North,8,5.0,12.0,62,0.00,,,0.00,0.000000,,2013-03-25 04:52:00,